Location: Friedrichshafen
(47.6598°N, 9.4819°E)
Time: 09:01:00
(UTC+01:00)

ISS - Pass Details

Date: 12 November 2017
Orbit: 401 x 407 km, 51.6° (Epoch: 25 November)

Event Time Altitude Azimuth Distance (km) Brightness Sun altitude
Exits shadow 05:52:57 33° 307° (NW) 705 -3.1 -15.2°
Maximum altitude 05:54:14 66° 19° (NNE) 442 -3.7 -15.0°
Drops below altitude 10° 05:57:28 10° 103° (ESE) 1,453 0.4 -14.5°
Sets 05:59:33 0° 106° (ESE) 2,310 2.0 -14.1°
